EHI
0 0 0 0 0 0 0 0 0 0 0 0 0 0 0 0 0 0 0 0 0 0 0 0 0 0 0 0 0 0 0 0 0 0 0 0 0 0 0 0 0 0 0
0 0 0 0 0 0 0 0 0 0 0 0 0 0 0 0 0 0 0 0 0 0 0 0 0 0 0 0 0 0 0 0 0 0 0 0 0 0 0 0 0 0 0
0 0 0 0 0 0 0 0 0 0 0 0 0 0 0 0 0 0 0 0 0 0 0 0 0 0 0 0 0 0 0 0 0 0 0 0 0 0 0 0 0 0 0
0 0 0 0 0 0 0 0 0 0 0 0 0 0 0 0 0 0 0 0 0 0 0 0 0 0 0 0 0 0 0 0 0 0 0 0 0 0 0 0 0 0 0
0 0 0 0 0 0 0 0 0 0 0 0 0 0 0 0 0 0 0 0 0 0 0 0 0 0 0 0 0 0 0 0 0 0 0 0 0 0 0 0 0 0 0
0 0 0 0 0 0 0 0 0 0 0 0 0 0 0 0 0 0 0 0 0 0 0 0 0 0 0 0 0 0 0 0 0 0 0 0 0 0 0 0 0 0 0
0 0 0 0 0 0 0 0 0 0 0 0 0 0 0 0 0 0 0 0 0 0 0 0 0 0 0 0 0 0 0 0 0 0 0 0 0 0 0 0 0 0 0
0 0 0 0 0 0 0 0 0 0 0 0 0 0 0 0 0 0 0 0 0 0 0 0 0 0 0 0 0 0 0 0 0 0 0 0 0 0 0 0 0 0 0
0 0 0 0 0 0 0 0 0 0 0 0 0 0 0 0 0 0 0 0 0 0 0 0 0 0 0 0 0 0 0 0 0 0 0 0 0 0 0 0 0 0 0
0 0 0 0 0 0 0 0 0 0 0 0 0 0 0 0 0 0 0 0 0 0 0 0 0 0 0 0 0 0 0 0 0 0 0 0 0 0 0 0 0 0 0
0 0 0 0 0 0 0 0 0 0 0 0 0 0 0 0 0 0 0 0 0 0 0 0 0 0 0 0 0 0 0 0 0 0 0 0 0 0 0 0 0 0 0
0 0 0 0 0 0 0 0 0 0 0 0 0 0 0 0 0 0 0 0 0 0 0 0 0 0 0 0 0 0 0 0 0 0 0 0 0 0 0 0 0 0 0
0 0 0 0 0 0 0 0 0 0 0 0 0 0 0 0 0 0 0 0 0 0 0 0 0 0 0 0 0 0 0 0 0 0 0 0 0 0 0 0 0 0 0
0 0 0 0 0 0 0 0 0 0 0 0 0 0 0 0 0 0 0 0 0 0 0 0 0 0 0 0 0 0 0 0 0 0 0 0 0 0 0 0 0 0 0
0 0 0 0 0 0 0 0 0 0 0 0 0 0 0 0 0 0 0 0 0 0 0 0 0 0 0 0 0 0 0 0 0 0 0 0 0 1 0 0 0 0 0
0 0 0 0 0 0 0 0 0 0 0 0 0 0 0 0 0 0 0 0 0 0 0 0 0 0 0 0 0 0 0 0 0 0 0 0 0 0 0 0 0 0 0
0 0 0 0 0 0 0 0 0 0 0 0 0 0 0 0 0 0 0 0 0 0 0 0 0 0 0 0 0 0 0 0 0 0 0 0 0 0 0 0 0 0 0
0 0 0 0 0 0 0 0 0 0 0 0 0 0 0 0 0 0 0 0 0 0 0 0 0 0 0 0 0 0 0 0 0 0 0 0 0 0 0 0 0 0 0
0 0 0 0 0 0 0 0 0 0 0 0 0 0 0 0 0 0 0 0 0 0 0 0 0 0 0 0 0 0 0 0 0 0 0 0 0 0 0 0 0 0 0
0 0 0 0 0 0 0 0 0 0 0 0 0 0 0 0 0 0 0 0 0 0 0 0 0 0 0 0 0 0 0 0 0 0 0 0 0 0 0 0 0 0 0
0 0 0 0 0 0 0 0 0 0 0 0 0 0 0 0 0 0 0 0 0 0 0 0 0 0 0 0 0 0 0 0 0 0 0 0 0 0 0 0 0 0 0
0 0 0 0 0 0 0 0 0 0 0 0 0 0 0 0 0 0 0 0 0 0 0 0 0 0 0 0 0 0 0 0 0 0 0 0 0 0 0 0 0 0 0
0 0 0 0 0 0 0 0 0 0 0 0 0 0 0 0 0 0 0 0 0 0 0 0 0 0 0 0 0 0 0 0 0 0 0 0 0 0 0 0 0 0 0
0 0 0 0 0 0 0 0 0 0 0 0 0 0 0 0 0 0 0 0 0 0 0 0 0 0 0 0 0 0 0 0 0 0 0 0 0 0 0 0 0 0 0
0 0 0 0 0 0 0 0 0 0 0 0 0 0 0 0 0 0 0 0 0 0 0 0 0 0 0 0 0 0 0 0 0 0 0 0 0 0 0 0 0 0 0
0 0 0 0 0 0 0 0 0 0 0 0 0 0 0 0 0 0 0 0 0 0 0 0 0 0 0 0 0 0 0 0 0 0 0 0 0 0 0 0 0 0 0
Wind_Speed
3 3 2 2 3 2 3 3 3 4 4 4 3 4 4 4 4 4 3 5 5 6 7 8 8 8 8 8 7 7 7 7 7 7 8 8 8 8 8 8 7 7 7
3 3 3 2 2 2 2 3 3 3 3 3 4 4 4 4 3 3 3 4 5 5 6 6 7 7 7 6 6 6 6 6 6 6 6 6 6 6 6 6 6 6 6
4 4 3 3 2 2 3 3 4 3 3 3 4 3 3 3 3 3 3 2 3 5 5 5 5 5 5 5 5 5 5 4 4 5 5 5 5 5 5 5 5 5 4
3 3 3 3 3 2 2 3 3 3 3 3 2 2 2 2 3 2 2 2 2 2 3 4 4 4 4 4 4 4 4 3 4 4 4 4 4 4 4 4 4 4 3
2 2 3 3 3 3 3 3 3 3 3 3 2 2 2 2 2 2 2 2 2 2 1 3 3 3 2 3 3 3 3 3 3 3 3 3 3 3 3 3 3 3 3
3 2 3 4 4 3 3 3 4 3 2 3 2 2 2 1 1 1 1 1 1 1 1 1 1 2 2 2 2 2 3 3 2 2 2 2 3 3 3 2 2 2 2
3 3 2 3 3 3 3 4 4 4 3 3 2 2 1 1 1 1 1 1 1 1 1 1 1 1 1 2 2 1 1 2 2 2 2 2 3 3 3 3 2 1 1
3 3 3 3 3 3 4 4 5 3 2 3 2 3 2 3 2 1 1 1 1 2 1 1 1 1 1 1 1 1 1 1 1 2 2 2 2 2 2 2 2 1 1
4 4 4 3 3 4 4 5 5 5 4 3 3 2 3 4 2 2 3 2 2 2 2 2 2 1 1 1 1 0 2 1 1 2 2 2 2 3 2 2 2 2 1
3 3 4 3 3 3 4 4 5 4 6 5 3 2 2 1 3 3 3 3 3 3 3 2 3 2 2 2 1 0 1 2 1 2 2 2 3 3 2 2 3 2 2
4 4 4 3 3 3 4 4 4 4 4 5 4 3 2 2 3 3 4 4 3 4 4 4 3 3 3 3 2 1 1 1 2 2 3 3 3 3 3 3 3 3 3
3 4 4 4 4 3 4 5 5 5 5 5 4 4 3 3 3 4 4 4 4 4 5 4 4 4 3 4 3 1 2 2 3 3 3 3 3 4 4 4 4 4 4
3 5 5 5 4 4 4 4 5 5 6 5 5 4 4 4 3 3 3 3 4 2 4 4 5 4 4 4 3 3 4 4 4 4 5 4 4 4 5 5 5 5 4
4 5 6 5 5 5 5 4 4 5 5 5 6 6 4 4 4 4 4 3 3 4 5 5 4 5 4 4 3 5 5 5 6 6 6 5 4 5 5 5 5 5 5
4 6 6 6 6 6 5 5 5 5 5 5 6 6 5 4 4 4 4 4 5 5 6 5 4 5 4 4 4 5 5 6 7 7 6 5 5 5 6 6 6 6 6
5 6 6 6 6 6 6 6 5 5 5 5 4 5 5 4 4 4 4 5 5 5 5 4 4 4 5 4 5 6 6 6 8 8 7 6 6 7 7 7 7 7 6
6 6 6 6 6 6 7 6 6 6 7 6 5 6 7 6 4 5 5 5 6 6 6 5 4 4 6 6 5 5 5 6 6 8 8 8 8 7 7 8 8 8 7
6 6 6 7 6 6 7 7 7 7 8 8 7 7 7 5 6 5 5 6 6 6 6 7 5 4 6 7 6 6 5 5 6 7 9 9 9 8 8 8 8 8 7
6 6 7 7 7 7 7 7 7 8 8 8 8 8 7 7 8 6 7 6 5 5 6 6 5 4 4 5 6 6 6 5 5 6 8 9 9 9 8 8 8 8 7
6 6 6 7 7 7 7 7 7 8 8 8 8 8 8 8 8 8 7 8 6 6 6 6 5 5 4 5 5 5 5 5 5 5 6 7 8 9 9 9 9 8 8
6 6 6 6 7 7 7 7 7 8 8 8 8 8 8 9 9 8 6 7 7 6 6 6 6 5 5 5 6 5 6 5 5 5 5 5 5 6 7 9 9 9 9
5 6 6 7 7 6 8 10 8 8 8 8 8 8 8 9 10 11 11 10 10 9 8 7 7 7 7 7 6 5 5 5 5 4 5 5 5 6 6 6 8 10 10
5 6 6 6 7 7 9 11 11 8 8 8 8 7 6 6 8 8 9 11 11 13 12 9 9 9 8 7 7 7 7 7 5 3 4 6 5 6 5 5 9 11 11
5 5 6 6 6 7 9 10 11 8 7 7 8 8 8 7 7 8 8 8 9 10 10 9 9 8 7 7 7 7 7 6 4 4 5 5 5 5 4 5 8 10 10
4 5 5 6 6 6 8 10 9 6 6 7 7 7 8 8 9 10 8 8 8 8 9 10 10 9 9 9 7 5 5 5 5 4 4 4 3 3 4 5 5 8 9
4 4 4 5 6 6 7 8 8 5 5 5 5 6 9 9 10 11 8 8 8 7 6 6 7 8 8 8 9 7 6 6 4 4 4 4 3 2 3 3 3 3 5
Wind_Direction
137 134 124 125 118 113 114 109 105 105 101 106 110 111 107 105 106 106 97 75 82 95 107 111 112 110 107 106 105 104 103 102 103 102 99 96 95 93 90 86 83 80 76
145 143 137 131 125 125 123 122 117 112 106 110 112 109 110 109 105 109 110 95 77 86 95 106 114 114 111 109 112 117 113 111 109 110 108 103 100 97 93 93 91 87 79
154 150 149 143 137 134 134 130 123 116 113 111 115 112 111 107 109 105 102 107 103 85 82 92 106 112 115 119 119 128 130 125 118 116 115 112 108 104 99 95 93 92 88
161 158 157 150 147 147 149 142 137 131 129 123 120 119 115 114 114 112 102 97 98 102 92 76 89 96 107 116 123 124 130 131 127 126 126 124 119 117 114 103 93 92 93
153 165 163 153 154 156 155 147 145 144 142 133 120 117 115 116 124 121 114 101 91 89 100 84 81 81 79 100 112 123 127 135 137 139 137 139 146 140 130 122 105 95 87
155 159 157 157 159 158 155 156 148 140 144 139 122 107 102 110 119 124 135 123 105 96 91 96 115 99 81 86 92 116 129 143 156 165 164 169 173 165 157 158 142 122 105
156 158 157 158 164 161 161 160 150 146 148 152 146 132 120 130 143 149 171 158 145 138 116 110 124 153 145 105 69 77 124 137 160 180 176 192 192 189 187 190 178 167 152
163 167 163 169 174 160 161 166 163 162 162 186 181 166 173 184 181 208 206 201 187 170 163 164 177 190 200 180 97 27 350 220 204 190 193 197 192 193 191 190 189 178 168
173 172 173 174 185 177 173 178 180 181 178 188 201 207 196 196 170 189 207 216 214 206 201 192 201 200 224 220 195 148 335 310 257 232 213 209 219 216 227 223 213 199 195
179 181 177 184 187 186 184 187 193 191 184 188 198 237 264 188 185 180 197 209 220 223 218 212 219 214 221 222 195 357 332 319 289 274 258 244 247 236 244 242 226 224 227
185 185 182 186 197 199 192 196 198 197 196 195 196 194 198 216 223 198 198 200 215 223 223 222 222 218 217 220 218 210 276 284 278 272 275 279 269 257 259 258 241 237 236
194 193 191 194 200 205 204 204 202 202 204 203 202 199 198 206 205 207 209 209 219 217 221 220 221 218 215 218 215 230 248 254 262 263 265 278 284 277 267 266 253 242 240
201 202 199 203 204 208 210 210 212 210 207 208 211 212 213 223 226 222 213 211 223 221 219 222 221 221 217 220 211 212 227 239 251 255 256 261 273 279 276 273 261 245 246
209 204 204 208 209 207 209 211 214 217 215 214 218 219 221 223 220 223 218 205 213 216 220 221 210 214 216 222 220 217 223 229 243 250 250 256 268 273 271 273 266 251 251
205 204 205 207 208 208 208 209 216 218 222 222 221 221 225 229 226 223 226 222 216 221 225 214 204 208 216 223 215 225 231 227 240 245 246 250 257 263 261 259 264 264 258
205 203 206 209 209 210 211 211 214 218 222 226 225 225 228 227 229 223 225 229 232 235 237 221 222 220 217 226 224 231 233 230 232 236 241 243 250 255 253 251 253 257 259
209 207 206 209 211 212 212 214 217 216 221 226 228 229 231 230 228 224 226 228 228 229 240 244 234 229 227 226 226 231 233 228 226 229 237 241 243 246 249 249 250 254 256
214 212 209 210 213 216 216 217 219 219 221 224 226 229 232 230 231 230 226 229 229 227 231 240 237 227 233 230 228 231 235 234 233 228 232 237 239 243 246 247 244 247 253
222 216 212 213 215 218 220 220 221 222 225 228 227 228 229 228 231 230 227 227 230 229 230 235 237 231 234 229 227 234 237 237 237 231 232 232 234 240 244 246 245 245 248
227 222 220 220 219 220 222 221 221 224 226 229 229 230 230 228 231 231 230 227 225 228 228 231 233 229 229 228 223 226 232 234 236 233 235 235 236 237 237 241 244 244 245
230 226 225 226 224 223 222 223 221 223 226 229 231 231 231 232 235 234 234 231 225 225 228 229 232 229 226 221 222 221 232 239 242 226 232 233 233 234 230 232 235 238 244
233 230 226 225 226 228 231 230 227 225 226 228 232 233 234 230 233 238 242 241 237 230 228 230 231 232 231 231 229 220 223 229 240 211 228 240 232 238 237 234 237 239 243
234 236 235 232 233 235 236 234 233 231 227 227 229 231 233 232 233 237 241 243 243 240 235 234 236 235 233 227 225 221 221 230 242 219 224 242 232 241 241 240 239 239 244
236 239 240 239 240 241 240 238 236 232 232 232 231 230 232 234 231 233 237 238 240 240 237 236 241 242 240 233 229 229 226 234 248 220 212 241 237 243 241 240 238 240 246
245 247 245 242 243 248 243 240 236 234 234 236 236 235 233 236 236 234 235 237 242 242 236 239 247 247 247 240 230 225 214 214 233 227 212 238 243 254 251 245 239 239 244
250 252 253 250 248 250 246 240 233 231 233 235 234 234 234 238 240 234 234 235 240 244 235 233 239 241 239 234 227 222 220 217 225 231 206 218 226 231 254 239 236 238 243